CamptonHillsWeather.com

Find the Weather for any City, State  
or Zipcode, or Country:

Campton Hills, IL Weather
Local Radar

Local Radar

Graphs, Details
Graphs and Gauges
Detailed Weather
Detailed Reports
Ajax Version (old)
Central Kane Co Summary
Davis Current Weather Graphs
Davis 24 Hour Weather History

CW3778 Data

Weather Underground
Maps
Temperature
Heat Index
Windchill
Humidity
Radar
Dew Point
Wind
Visibility
Visible Satellite
Satellite
Fronts
Snow Depth
Jet Stream
Flight Rules
Forecast Maps
Temperature Forecast
Maximum Temperature Forecast
Minimum Temperature Forecast
Dewpoint Forecast
Prevalent Weather
12Hr Probability of Precip.
Sky Cover
Health Maps
UV Forecast
Air Quality
Peak Air Quality Index
Weather Station
Davis Instruments Vantage Pro
Current Conditions [Select Refresh to Update]

Updated: 6:23am on 7/22/14

(location)
Currently:
67.4F

Clear
Clear

High: 70.9 F< 
(12:00am
Low: 67.0 F 
(5:46am)
Wind: SW 1 mph
Calm
Gust: 1 mph
Today's High Wind: 3 mph (2:51am)
Humidity: 93%
Pressure: 30.02 in  (Steady
Pressure Rate: 0.003 in/hr
Dew Point: 65.3F
Wind Chill: 67.4 F
Heat Index (feels like): 73.5 F
Comfort Level: Comfortable
Temperature Rate:  0.01F/hr
 
5 Day Forecast
 
Tue Wed Thu Fri Sat
Clear Clear Clear Clear Clear
Partly Cloudy Partly Cloudy Partly Cloudy Mostly Cloudy Chance T-storms
90 77 77 77 79
63 55 52 59 63

Records and Normals
 
Temperature Forecast Normal Record
High 90 85 93
(2001)
Low 63 63 53
(1996)
 
Links
 
 
Weather Advisories
Warning Date: 5:35 am EDT on July 22, 2014/
Warning Description: Special Statement
Full Advisory Text...
Weather Map

Web Cam

Almanac
 
Sunrise:  
5:39am
Moonrise: 
2:11am

Moon Phase:
21%

Sunset: 
8:23pm
Moonset:  
4:59pm
 Star Chart...
Rainfall Totals
Hourly Rain 0.00 in
Daily Rain: 0.00 in
Monthly Rain: 1.97 in
Yearly Rain: 21.15 in
Normal Rain, month to date: 2.01 in
Normal Rain, year to date: 16.59 in
Link to Village of Campton Hills Map

Link to Counties of Illinois Map

Local Weather Exchange Network
Station ID City 
(Click for Map Location)
Neighborhood 
(Click for History)
Last Update (Date & Time) Temperature
 ()
Dew
Point ()
Humidity 
(%)
Wind 
(mph)
from the Wind Gust 
(mph) 
Pressure(in) Hourly
Rain(in)
KILSTCHA10 St. Charles Hunt Club 07/22 06:18:07 69.6 68.0 94 0 NE 0 29.65 0.00
KILSOUTH6 South Elgin Thornwood 07/22 06:06:59 66.6 64.0 90 2 SSW 0 29.93 0.00
KILCAMPT3 Campton Hills Campton Hills 07/22 06:18:01 66.4 66.0 100 0 South 0 30.03 0.00
KILGENEV6 Geneva Dover Ridge 07/22 06:18:11 68.5 64.0 87 9 SSW 9 30.00 0.00
KILSTCHA8 St. Charles Ronzheimer Ave. & S. Tyler Rd. 07/22 06:18:05 68.7 65.0 87 0 SW 6 30.00 0.00
KILGENEV3 Geneva Mill Creek (NE) 07/22 06:17:55 66.9 65.0 92 0 South 2 30.02 0.00
KILSTCHA1 St Charles CamptonHillsWeather.com Central Kane County 07/22 06:18:10 67.3 65.0 93 0 SW 1 30.02 0.00
KILELGIN13 Elgin Creek Side 07/22 06:18:09 68.0 64.0 87 1 SW 1 29.15 0.00
KILSOUTH5 South Elgin Concord Park 07/22 06:14:11 68.7 65.0 89 5 SSW 0 29.82 0.00
KILGENEV2 Geneva Mill Creek 07/22 06:16:35 67.1 65.0 91 5 SSW 7 29.98 0.00
KILELBUR7 Elburn Cheval-De-Selle 07/22 06:07:58 64.7 63.0 94 4 SSE 0 29.98 0.00
KILBATAV1 Batavia Tri-Cities on the Fox River 07/22 06:17:36 68.4 63.0 84 0 SSE 0 30.05 0.00
KILELBUR5 Elburn Prairie Highlands 07/22 06:15:16 67.4 65.0 93 1 SSW 5 30.01 0.00
KILBATAV3 Batavia West Batavia 07/22 06:16:03 67.9 65.0 91 0 SW 1 29.99 0.00
KILELBUR6 Elburn Columbine Square 07/22 06:15:44 65.7 65.0 96 0 SW 2 29.97 0.00
KILBATAV5 Batavia Fermi National Accelerator Laboratory 07/22 06:03:27 69.0 65.0 86 0 South 8 29.97 0.00
KILWESTC5 West Chicago THEBROWNHOUSE.ORG 07/22 06:18:08 67.0 63.0 88 0 SSE 0 30.04 0.00
KILWESTC8 West Chicago Ingalton Hills Estates 07/22 06:18:10 67.0 66.0 95 1 SW 1 30.11 0.00
KILBARTL1 Bartlett Amber Grove KC9TVS 07/22 06:16:05 69.2 48.0 47 5 SSW 8 30.07 0.00
KILNORTH11 North Aurora Waterford Oaks 07/22 06:18:09 68.9 66.0 89 1 SW 8 30.02 0.00
KILELGIN10 Elgin Wing Park 07/22 06:17:28 68.2 65.0 89 1 South 0 29.24 0.00
MUP188 Elburn MesoWest ELBRN1 IL US UPR 07/22 04:40:00 69.0 0.0 0 0 North 0 0.00 0.00
KILELGIN14 Elgin Elgin, IL 07/22 06:18:10 68.4 64.0 87 0 South 2 29.99 0.00
KILCAROL5 Carol Stream Stonehenge Court 07/22 06:15:05 68.5 50.0 51 4 South 4 30.01 0.00
MUP431 West Chicago MesoWest WINFL1 IL US UPR 07/22 05:25:00 67.0 0.0 0 0 North 0 0.00 0.00
KILGILBE2 Gilberts Gilberts, IL 07/22 06:17:52 69.3 65.0 85 3 West 5 30.25 0.00
KILWINFI3 Winfield Fredericksburg Farm 07/22 06:18:08 69.3 65.0 86 5 SE 5 29.94 0.00
KILWINFI2 Winfield Winfield Heights (SarahNet) 07/22 06:12:04 69.1 64.0 83 2 South 6 30.01 0.00
KILCAROL6 Carol Stream Merbach Ct 07/22 06:18:02 69.4 65.0 86 3 West 3 30.01 0.00
KILSLEEP2 Sleepy Hollow Sleepy Hollow Manor 07/22 06:09:02 68.0 64.0 86 2 South 0 29.95 0.00
KILWARRE2 Warrenville meso_neigh31 07/22 06:18:09 69.6 66.0 87 0 SSW 5 30.00 0.00
KILHANOV2 Hanover Park meso_neigh32 07/22 06:17:31 69.1 66.0 89 4 South 7 30.03 0.00
KILWHEAT8 Wheaton Wheaton Sanitary District 07/22 06:13:17 69.0 66.0 90 0 SW 3 30.02 0.00
KILWARRE4 Warrenville Cerny Park 07/22 06:15:10 70.2 68.0 94 1 South 2 30.21 0.00
KILWHEAT5 Wheaton N9ABF - West Wheaton 07/22 06:13:34 67.9 63.0 85 0 South 0 30.03 0.00
KILSCHAU9 Schaumburg Schaumburg West 07/22 06:18:09 70.0 70.0 99 4 WSW 9 30.03 0.00
KILEASTD2 East Dundee Rock Road Industrial Park 07/22 06:14:05 70.5 62.0 75 9 SW 16 30.05 0.00
KILCARPE6 Carpentersville Carpentersville 07/22 06:17:39 68.7 65.0 88 5 SW 5 29.17 0.00
KILWHEAT11 Wheaton Wheaton SW Orth Ct 07/22 06:18:06 70.2 64.0 81 0 SE 0 30.16 0.00
KDPA Chicago DuPage Official Station 07/22 05:52:00 67.0 64.0 90 8 South --- 30.04 ---
Full Advisory Text
Warning Description: Special Statement

Warning Date: 5:35 am EDT on July 22, 2014/

WarningSum:...Hot And Humid Conditions On Tuesday...

Warning Message:A combination of afternoon temperatures in the lower 90s and
high dew points on Tuesday will result in maximum heat index
values between 95 to 100 degrees. Given a general lack of high
heat so far this Summer...Tuesday will be the hottest day of the
year for most of the area.
Heat safety precautions should be taken for those at risk to heat
related illnesses or if you will be spending prolonged periods of
time outdoors. 
Beachler
Visit US at http://weather.Gov/Chicago (all lowercase)
Follow US on facebook...twitter...and youtube at:
www.Facebook.Com/US.Nationalweatherservice.Chicago.Gov
www.Twitter.Com/nwschicago
        

Ambient Weather and Weather Underground
 Never base important decisions on this or any weather information obtained from the Internet
Updated Automatically by Ambient Weather's Virtual Weather Station  V13.01